Location: Unspecified
(48.8656°N, 0.0000°E)
Time: 16:00:45
(UTC+00:00)

Transit 2A Rocket - Pass Details

Date: 26 June 2019
Orbit: 590 x 913 km, 66.7° (Epoch: 22 August)

Event Time Altitude Azimuth Distance (km) Brightness Sun altitude
Rises 12:50:22 0° 292° (WNW) 3,499 8.4 62.8°
Reaches altitude 10° 12:54:23 10° 318° (NW) 2,510 7.7 62.5°
Maximum altitude 12:57:13 14° 347° (NNW) 2,214 7.3 62.3°
Drops below altitude 10° 12:59:59 10° 17° (NNE) 2,418 7.4 62.1°
Sets 13:03:43 0° 44° (NE) 3,273 8.0 61.8°
